• în România
  • Lista ţărilor
  • Pe 7 zile
  • Temperatura apei
  • Hartă satelitară
  • Meteo pe hartă
  • Widget-uri
  • user-avatar
    Intrare

    Meteo pe oră la Uige

    Astăzi, 22 Februarie, Miercuri

    Timp Temperatura Precipitaţii Vânt Presiune Umiditate
    00:00 +23°C° 0 mm 1 m/s 691 mmHg 90%
    01:00 +22°C° 0 mm 1 m/s 691 mmHg 92%
    02:00 +22°C° 0,1 mm 1 m/s 691 mmHg 94%
    03:00 +22°C° 0,1 mm 1 m/s 690 mmHg 96%
    04:00 +21°C° 0,1 mm 1 m/s 690 mmHg 97%
    05:00 +22°C° 0 mm 1 m/s 691 mmHg 95%
    06:00 +22°C° 0 mm 1 m/s 691 mmHg 94%
    07:00 +21°C° 0 mm 0 m/s 692 mmHg 92%
    08:00 +25°C° 0,3 mm 1 m/s 692 mmHg 84%
    09:00 +27°C° 0,3 mm 1 m/s 692 mmHg 76%
    10:00 +29°C° 0,3 mm 1 m/s 693 mmHg 67%
    11:00 +30°C° 0,5 mm 1 m/s 692 mmHg 64%
    12:00 +30°C° 0,5 mm 1 m/s 692 mmHg 61%
    13:00 +31°C° 0,5 mm 2 m/s 691 mmHg 58%
    14:00 +30°C° 0,4 mm 2 m/s 691 mmHg 61%
    15:00 +30°C° 0,4 mm 2 m/s 690 mmHg 65%
    16:00 +29°C° 0,4 mm 2 m/s 689 mmHg 68%
    17:00 +27°C° 0,5 mm 2 m/s 689 mmHg 76%
    18:00 +25°C° 0,5 mm 2 m/s 690 mmHg 85%
    19:00 +23°C° 0,5 mm 1 m/s 690 mmHg 93%
    20:00 +23°C° 0,1 mm 1 m/s 690 mmHg 94%
    21:00 +23°C° 0,1 mm 1 m/s 691 mmHg 95%
    22:00 +23°C° 0,1 mm 1 m/s 691 mmHg 97%
    23:00 +22°C° 0 mm 1 m/s 691 mmHg 97%

    Mâine, 23 Februarie, Joi

    Timp Temperatura Precipitaţii Vânt Presiune Umiditate
    00:00 +22°C° 0 mm 1 m/s 691 mmHg 98%
    01:00 +22°C° 0 mm 1 m/s 691 mmHg 98%
    02:00 +22°C° 0 mm 1 m/s 691 mmHg 98%
    03:00 +21°C° 0 mm 1 m/s 690 mmHg 98%
    04:00 +21°C° 0 mm 1 m/s 690 mmHg 98%
    05:00 +21°C° 0 mm 1 m/s 690 mmHg 97%
    06:00 +22°C° 0 mm 1 m/s 691 mmHg 96%
    07:00 +22°C° 0 mm 1 m/s 691 mmHg 94%
    08:00 +24°C° 0 mm 1 m/s 692 mmHg 85%
    09:00 +26°C° 0 mm 1 m/s 692 mmHg 76%
    10:00 +28°C° 0 mm 1 m/s 693 mmHg 67%
    11:00 +29°C° 0 mm 1 m/s 692 mmHg 63%
    12:00 +30°C° 0 mm 1 m/s 692 mmHg 59%
    13:00 +31°C° 0 mm 1 m/s 691 mmHg 56%
    14:00 +30°C° 0,1 mm 1 m/s 691 mmHg 59%
    15:00 +30°C° 0,1 mm 1 m/s 690 mmHg 63%
    16:00 +29°C° 0,1 mm 1 m/s 689 mmHg 66%
    17:00 +27°C° 0,1 mm 1 m/s 689 mmHg 73%
    18:00 +25°C° 0,1 mm 1 m/s 689 mmHg 79%
    19:00 +23°C° 0,1 mm 1 m/s 689 mmHg 85%
    20:00 +23°C° 0 mm 1 m/s 689 mmHg 85%
    21:00 +22°C° 0 mm 1 m/s 690 mmHg 84%
    22:00 +22°C° 0 mm 1 m/s 691 mmHg 84%
    23:00 +22°C° 0 mm 1 m/s 690 mmHg 86%

    Poimâine, 24 Februarie, Vineri

    Timp Temperatura Precipitaţii Vânt Presiune Umiditate
    00:00 +22°C° 0 mm 1 m/s 690 mmHg 88%
    01:00 +22°C° 0 mm 1 m/s 690 mmHg 89%
    02:00 +22°C° 0 mm 1 m/s 690 mmHg 91%
    03:00 +21°C° 0 mm 1 m/s 689 mmHg 92%
    04:00 +21°C° 0 mm 1 m/s 689 mmHg 93%
    05:00 +21°C° 0 mm 1 m/s 690 mmHg 91%
    06:00 +22°C° 0 mm 1 m/s 690 mmHg 89%
    07:00 +22°C° 0 mm 1 m/s 690 mmHg 87%
    08:00 +24°C° 0 mm 1 m/s 691 mmHg 78%
    09:00 +26°C° 0 mm 1 m/s 691 mmHg 69%
    10:00 +28°C° 0 mm 1 m/s 692 mmHg 60%
    11:00 +29°C° 0 mm 1 m/s 691 mmHg 55%
    12:00 +31°C° 0 mm 1 m/s 691 mmHg 51%
    13:00 +32°C° 0 mm 1 m/s 690 mmHg 46%
    14:00 +31°C° 0,1 mm 1 m/s 690 mmHg 48%
    15:00 +31°C° 0,1 mm 1 m/s 690 mmHg 50%
    16:00 +31°C° 0,1 mm 1 m/s 689 mmHg 52%
    17:00 +28°C° 0,3 mm 1 m/s 689 mmHg 61%
    18:00 +26°C° 0,3 mm 1 m/s 689 mmHg 71%
    19:00 +24°C° 0,3 mm 1 m/s 689 mmHg 80%
    20:00 +23°C° 0,1 mm 1 m/s 690 mmHg 85%
    21:00 +22°C° 0,1 mm 1 m/s 691 mmHg 90%
    22:00 +21°C° 0,1 mm 1 m/s 691 mmHg 96%
    23:00 +21°C° 0,1 mm 1 m/s 691 mmHg 96%

    25 Februarie, Sâmbătă

    Timp Temperatura Precipitaţii Vânt Presiune Umiditate
    00:00 +22°C° 0,1 mm 1 m/s 691 mmHg 97%
    01:00 +22°C° 0,1 mm 1 m/s 691 mmHg 98%
    02:00 +22°C° 0,1 mm 1 m/s 690 mmHg 98%
    03:00 +21°C° 0,1 mm 1 m/s 690 mmHg 98%
    04:00 +21°C° 0,1 mm 1 m/s 690 mmHg 99%
    05:00 +21°C° 0 mm 1 m/s 690 mmHg 98%
    06:00 +22°C° 0 mm 1 m/s 691 mmHg 97%
    07:00 +22°C° 0 mm 1 m/s 691 mmHg 96%
    08:00 +24°C° 0,2 mm 1 m/s 692 mmHg 84%
    09:00 +27°C° 0,2 mm 1 m/s 692 mmHg 71%
    10:00 +30°C° 0,2 mm 1 m/s 693 mmHg 59%
    11:00 +31°C° 0,2 mm 1 m/s 692 mmHg 53%
    12:00 +32°C° 0,2 mm 1 m/s 691 mmHg 48%
    13:00 +34°C° 0,2 mm 1 m/s 691 mmHg 42%
    14:00 +33°C° 0,1 mm 1 m/s 690 mmHg 45%
    15:00 +32°C° 0,1 mm 1 m/s 690 mmHg 48%
    16:00 +31°C° 0,1 mm 1 m/s 689 mmHg 50%
    17:00 +29°C° 0,1 mm 1 m/s 689 mmHg 59%
    18:00 +27°C° 0,1 mm 1 m/s 689 mmHg 67%
    19:00 +24°C° 0,1 mm 1 m/s 689 mmHg 76%
    20:00 +23°C° 0 mm 1 m/s 690 mmHg 80%
    21:00 +23°C° 0 mm 1 m/s 690 mmHg 83%
    22:00 +22°C° 0 mm 1 m/s 691 mmHg 87%
    23:00 +22°C° 0 mm 1 m/s 690 mmHg 90%

    26 Februarie, Duminică

    Timp Temperatura Precipitaţii Vânt Presiune Umiditate
    00:00 +21°C° 0 mm 1 m/s 690 mmHg 93%
    01:00 +21°C° 0 mm 1 m/s 690 mmHg 96%
    02:00 +21°C° 0 mm 1 m/s 690 mmHg 97%
    03:00 +21°C° 0 mm 1 m/s 689 mmHg 97%
    04:00 +21°C° 0 mm 1 m/s 689 mmHg 97%
    05:00 +21°C° 0 mm 1 m/s 690 mmHg 94%
    06:00 +22°C° 0 mm 1 m/s 690 mmHg 92%
    07:00 +22°C° 0 mm 1 m/s 691 mmHg 89%
    08:00 +24°C° 0 mm 1 m/s 691 mmHg 78%
    09:00 +27°C° 0 mm 1 m/s 692 mmHg 68%
    10:00 +29°C° 0 mm 1 m/s 692 mmHg 57%
    11:00 +30°C° 0 mm 1 m/s 691 mmHg 50%
    12:00 +31°C° 0 mm 1 m/s 691 mmHg 44%
    13:00 +34°C° 0 mm 2 m/s 690 mmHg 37%
    14:00 +34°C° 0 mm 2 m/s 689 mmHg 38%
    15:00 +32°C° 0 mm 2 m/s 689 mmHg 38%
    16:00 +32°C° 0 mm 2 m/s 688 mmHg 39%
    17:00 +30°C° 0 mm 2 m/s 688 mmHg 45%
    18:00 +27°C° 0 mm 2 m/s 688 mmHg 52%
    19:00 +25°C° 0 mm 2 m/s 688 mmHg 58%
    20:00 +24°C° 0 mm 2 m/s 688 mmHg 60%
    21:00 +23°C° 0 mm 2 m/s 689 mmHg 62%
    22:00 +22°C° 0 mm 1 m/s 689 mmHg 64%
    23:00 +21°C° 0 mm 1 m/s 689 mmHg 69%

    27 Februarie, Luni

    Timp Temperatura Precipitaţii Vânt Presiune Umiditate
    00:00 +21°C° 0 mm 1 m/s 689 mmHg 75%
    01:00 +20°C° 0 mm 1 m/s 688 mmHg 80%
    02:00 +20°C° 0 mm 1 m/s 688 mmHg 85%
    03:00 +20°C° 0 mm 1 m/s 688 mmHg 89%
    04:00 +20°C° 0 mm 1 m/s 688 mmHg 93%
    05:00 +20°C° 0 mm 1 m/s 689 mmHg 92%
    06:00 +21°C° 0 mm 1 m/s 689 mmHg 91%
    07:00 +21°C° 0 mm 1 m/s 690 mmHg 91%
    08:00 +24°C° 0 mm 1 m/s 690 mmHg 75%
    09:00 +28°C° 0 mm 1 m/s 691 mmHg 59%
    10:00 +31°C° 0 mm 1 m/s 691 mmHg 43%
    11:00 +32°C° 0 mm 1 m/s 691 mmHg 39%
    12:00 +34°C° 0 mm 2 m/s 690 mmHg 35%
    13:00 +35°C° 0 mm 2 m/s 690 mmHg 30%
    14:00 +35°C° 0 mm 2 m/s 689 mmHg 32%
    15:00 +34°C° 0 mm 2 m/s 689 mmHg 34%
    16:00 +34°C° 0 mm 2 m/s 688 mmHg 36%
    17:00 +30°C° 0 mm 2 m/s 688 mmHg 44%
    18:00 +28°C° 0 mm 2 m/s 688 mmHg 52%
    19:00 +25°C° 0 mm 2 m/s 688 mmHg 60%
    20:00 +24°C° 0 mm 2 m/s 689 mmHg 66%
    21:00 +23°C° 0 mm 1 m/s 689 mmHg 73%
    22:00 +22°C° 0 mm 1 m/s 689 mmHg 79%
    23:00 +21°C° 0 mm 1 m/s 689 mmHg 84%
    Arată mai mult